GEFSCGP_con_prob3kmehi_198.txt.gz
EHI
0 0 0 0 0 0 0 0 0 0 0 0 0 0 4 12 18 18 18 19 18 15 14 18 25 29 27 23 21 19 15 10 8 8 7 6 3 2 2 1 1 2 2 3
0 0 0 0 0 0 0 0 0 0 0 0 1 1 3 9 16 19 20 22 22 21 21 26 32 37 37 33 29 26 22 17 13 11 9 8 6 4 3 2 2 3 4 3
0 0 0 0 0 0 0 0 0 0 0 0 1 2 3 5 9 13 17 21 25 29 33 38 45 47 46 43 38 34 31 27 23 18 15 15 13 9 7 5 4 4 4 4
0 0 0 0 0 0 0 0 0 0 0 0 1 1 2 2 3 6 12 19 26 35 42 48 53 53 50 49 45 42 38 35 31 26 25 24 21 16 12 9 6 4 3 3
0 0 0 0 0 0 0 0 0 0 0 0 0 0 1 1 1 4 11 18 26 38 48 52 56 56 54 52 50 47 43 38 34 31 32 31 27 21 15 10 7 4 3 3
0 0 0 0 0 0 0 0 0 0 0 0 0 0 0 0 0 4 12 20 29 40 50 55 58 60 59 56 53 49 45 41 36 34 34 32 27 21 16 11 7 4 3 3
0 0 0 0 0 0 0 0 0 0 0 0 0 0 0 0 0 3 11 22 33 42 50 57 62 65 65 62 58 53 48 44 40 36 34 30 24 19 15 11 8 5 4 4
0 0 0 0 0 0 0 0 0 0 0 0 0 0 0 0 0 2 8 20 33 42 49 58 66 69 69 67 63 56 50 44 40 35 31 26 20 15 12 10 8 6 6 6
0 0 0 0 0 0 0 0 0 0 0 0 0 0 0 1 1 1 5 16 28 37 46 56 64 67 67 67 64 56 47 40 35 32 29 24 19 14 11 8 6 6 7 7
0 0 0 0 0 0 0 0 0 0 0 0 0 0 1 2 2 2 5 12 22 31 40 49 57 60 62 63 60 54 45 36 31 29 26 24 21 16 12 8 7 6 6 6
0 0 0 0 0 0 0 0 0 0 0 0 0 0 1 2 3 4 5 9 17 26 33 42 51 55 56 57 57 52 45 36 31 28 25 24 23 18 14 10 7 6 5 5
0 0 0 0 0 0 0 0 0 0 0 0 0 0 0 1 2 4 7 10 14 21 29 39 50 55 54 53 53 49 42 35 30 28 25 23 22 20 15 10 7 5 4 2
0 0 0 0 0 0 0 0 0 0 0 0 0 0 0 0 1 4 8 11 13 17 24 35 46 50 49 47 46 43 37 32 29 27 25 22 21 21 17 13 9 7 4 2
0 0 0 0 0 0 0 0 0 0 0 0 0 0 0 0 2 5 9 12 13 14 17 25 35 40 39 38 37 36 33 30 30 28 25 21 19 19 18 15 13 11 9 7
0 0 0 0 0 0 0 0 0 0 0 0 0 0 0 1 3 7 9 12 13 12 12 16 24 30 32 32 32 31 30 30 30 28 25 22 18 16 16 15 15 14 13 12
0 0 0 0 0 1 1 1 0 0 0 0 0 0 0 1 3 6 9 11 12 11 11 14 20 26 29 30 31 32 30 30 30 27 24 20 16 13 13 13 13 14 14 13
0 0 0 0 0 1 2 1 1 1 1 1 0 0 1 2 3 5 7 9 11 11 11 14 19 25 27 29 33 34 33 31 30 27 22 18 15 13 12 12 12 13 14 14
0 0 0 0 0 0 1 1 1 1 2 1 0 1 2 3 4 5 6 8 11 12 13 15 18 21 24 27 30 33 33 32 30 26 21 17 15 14 12 13 13 13 14 15
0 0 0 0 0 0 0 0 0 1 2 2 1 1 3 4 4 5 5 8 13 14 15 15 15 17 19 22 24 29 33 32 30 25 20 17 15 13 12 14 14 14 14 14
0 0 0 0 0 0 0 0 0 1 2 2 1 2 4 3 3 3 5 9 14 16 16 16 14 14 16 18 22 27 32 32 28 23 19 17 15 13 12 12 13 13 13 13
0 0 0 0 0 0 0 1 1 1 2 2 2 2 3 3 3 4 5 8 12 14 15 14 14 13 14 17 21 26 27 27 24 20 17 14 12 10 10 11 12 12 12 11
0 0 0 0 0 0 0 1 2 2 2 3 3 2 3 4 6 6 6 7 10 12 12 11 12 11 11 14 18 20 20 19 18 15 13 10 8 7 9 10 10 10 10 10
0 0 0 0 0 0 0 1 1 2 3 4 3 3 4 7 8 7 7 7 9 11 10 9 8 8 8 9 12 14 13 13 13 12 9 7 6 6 7 8 8 8 9 9
0 0 0 0 0 0 0 1 2 3 3 4 4 4 5 7 8 7 6 7 9 10 9 7 6 6 6 6 7 8 9 9 10 10 7 5 4 4 4 5 5 5 6 7
0 0 0 0 0 0 0 1 2 3 3 3 5 6 6 6 6 6 6 7 9 9 7 5 5 7 6 4 4 6 7 7 7 6 4 3 2 2 2 2 1 1 2 3
0 0 0 0 0 0 0 1 2 3 3 3 6 8 7 6 5 5 4 6 8 8 5 3 5 8 6 3 3 5 6 6 4 2 1 1 1 1 0 0 0 0 0 1

GEFSCGP_con_prob3kmehi_204.txt.gz
EHI
0 0 0 0 0 0 0 0 0 0 0 0 0 0 0 0 1 4 9 14 16 18 23 28 30 29 28 28 26 25 27 26 24 20 15 11 8 7 7 8 8 8 8 8
0 0 0 0 0 0 0 0 0 0 0 0 0 0 0 0 1 3 8 11 13 19 27 33 36 35 35 35 34 32 32 31 26 21 18 14 11 9 8 8 8 9 10 10
0 0 0 0 0 0 0 0 0 0 0 0 0 0 0 0 0 2 4 6 9 17 27 36 42 46 45 44 43 39 38 37 32 26 22 18 15 13 10 8 9 11 11 11
0 0 0 0 0 0 0 0 0 0 0 0 0 0 0 0 0 1 2 3 6 12 21 34 47 53 53 50 46 44 43 43 40 34 27 23 19 16 13 11 10 11 11 9
0 0 0 0 0 0 0 0 0 0 0 0 0 0 0 0 0 1 2 3 6 9 16 29 44 53 55 53 50 49 50 49 47 41 33 27 21 17 16 14 13 12 11 10
0 0 0 0 0 0 0 0 0 0 0 0 0 0 0 0 0 0 1 2 6 10 16 25 39 51 58 59 57 56 57 57 53 45 37 30 24 20 20 19 17 14 12 11
0 0 0 0 0 0 0 0 0 0 0 0 0 0 0 0 0 0 0 2 6 12 18 25 37 51 63 67 64 63 65 64 58 50 42 34 28 25 24 21 20 16 13 12
0 0 0 0 0 0 0 0 0 0 0 0 0 0 0 0 0 1 1 3 6 11 17 26 37 48 60 67 68 69 70 69 62 55 48 40 33 28 25 23 20 17 14 13
0 0 0 0 0 0 0 0 0 0 0 0 0 0 0 1 2 4 5 6 8 10 15 23 34 43 50 60 67 69 70 70 66 58 51 44 38 33 29 24 19 17 16 15
0 0 0 0 0 0 0 0 0 0 0 0 0 0 2 4 6 8 9 9 11 14 18 24 33 40 44 53 63 65 67 69 66 59 50 43 39 37 33 25 19 18 17 16
0 0 0 0 0 0 0 0 0 0 0 0 0 1 3 7 9 11 11 11 15 20 24 28 35 40 42 48 58 63 64 64 61 57 50 42 36 34 31 24 19 18 17 16
0 0 0 0 0 0 0 0 0 0 0 0 0 1 4 7 10 12 13 14 18 23 27 32 37 41 43 47 54 59 60 58 56 53 49 41 33 30 27 22 19 16 14 13
0 0 0 0 0 0 0 0 0 0 0 0 1 3 5 7 9 12 15 18 21 24 28 33 40 43 46 48 51 53 55 55 53 51 48 41 34 31 27 23 20 17 13 11
0 0 0 0 0 0 0 0 0 0 0 0 1 3 5 6 7 10 13 17 20 23 27 34 41 46 48 49 49 49 50 53 54 53 49 44 39 35 30 26 23 19 14 12
0 0 0 0 0 0 0 0 0 0 0 0 1 3 5 5 5 6 9 14 19 22 28 34 40 47 49 48 48 50 52 55 59 57 50 45 43 38 33 29 27 23 18 16
0 0 0 0 0 0 0 0 0 0 0 0 2 4 5 4 4 4 6 11 17 23 29 34 39 46 47 44 46 52 55 58 59 55 47 43 42 38 33 31 31 29 26 24
0 0 0 0 0 0 0 1 1 1 1 1 3 5 5 4 3 4 5 9 16 23 29 35 40 46 47 43 45 52 56 56 55 51 45 42 41 38 34 33 35 36 33 29
0 0 0 0 0 0 0 0 1 2 3 3 4 5 5 4 3 3 7 11 17 24 30 36 42 47 49 48 49 54 55 51 49 48 45 42 40 38 37 36 36 36 35 32
0 0 0 0 0 0 0 0 1 2 3 5 5 4 4 5 3 4 11 17 22 29 34 36 41 47 50 51 53 54 51 45 42 43 43 42 40 39 37 36 35 36 35 34
0 0 0 0 0 0 0 0 0 1 3 6 6 4 4 5 5 9 17 25 31 36 38 39 43 47 50 51 52 53 48 42 39 40 43 43 39 37 36 34 35 37 35 32
0 0 0 0 0 0 0 0 0 1 3 6 6 5 4 6 10 16 22 29 36 38 39 42 47 50 51 50 51 51 47 42 41 42 43 42 37 34 32 31 33 34 31 27
1 1 0 0 0 1 2 4 5 6 6 6 5 5 6 9 14 19 23 28 32 33 36 41 44 47 47 46 47 46 42 40 40 40 39 37 33 30 28 29 30 29 26 23
2 2 1 1 1 2 6 9 10 8 7 5 5 6 8 10 14 18 21 22 22 25 30 32 34 35 36 37 37 36 34 34 34 35 35 32 29 27 26 26 27 26 24 22
3 3 3 2 2 3 6 8 8 6 5 4 5 7 7 8 11 15 16 15 15 18 21 23 25 26 28 29 29 27 28 29 30 32 32 29 25 24 23 22 21 21 20 19
3 3 3 3 2 3 3 3 4 4 4 4 5 6 6 7 9 11 11 11 12 15 17 19 22 24 25 25 24 24 27 29 30 29 26 23 21 20 18 15 13 12 12 11
3 2 2 2 1 1 1 1 2 3 3 4 5 5 6 7 10 10 9 8 11 14 16 18 20 22 22 22 22 23 27 30 30 26 21 18 17 16 14 11 8 6 6 5

GEFSCGP_con_prob3kmehi_210.txt.gz
EHI
0 0 0 0 0 0 0 0 0 0 0 1 2 4 5 4 4 11 25 39 48 55 63 69 71 70 71 74 75 72 69 64 54 42 32 26 28 30 26 26 32 34 29 24
0 0 0 0 0 0 0 0 0 0 0 0 2 5 6 5 4 12 25 38 48 57 65 72 74 74 75 78 78 74 70 64 55 45 35 31 32 32 27 28 34 34 28 24
0 0 0 0 0 0 0 0 0 0 0 0 1 6 9 7 5 10 20 31 43 56 66 73 79 81 82 83 82 78 74 67 59 50 40 37 39 37 33 34 37 35 29 26
0 0 0 0 0 0 0 0 0 0 0 0 1 4 9 9 7 8 15 22 33 49 64 73 81 86 88 88 87 85 82 76 66 55 46 43 43 42 41 42 42 39 33 30
0 0 0 0 0 0 0 0 0 0 0 0 0 2 6 9 9 9 12 16 24 40 59 72 81 87 90 90 90 90 88 84 75 63 55 50 47 46 46 48 49 45 37 32
0 0 0 0 0 0 0 0 0 0 0 0 0 1 3 7 8 9 12 15 19 32 53 71 81 86 89 90 91 92 91 88 81 73 65 58 52 51 52 52 50 45 39 36
0 0 0 0 0 0 0 0 0 0 0 0 0 0 1 4 6 8 12 15 19 29 49 69 82 86 88 90 92 94 94 90 84 78 73 67 58 55 54 52 45 41 40 40
0 0 0 0 0 0 0 0 0 0 0 0 0 0 0 2 5 7 9 13 19 29 44 64 78 85 87 88 92 94 94 91 86 81 77 73 67 59 54 50 44 41 41 41
0 0 0 0 0 0 0 0 0 0 0 0 0 0 0 2 4 6 7 10 17 26 39 56 72 82 84 86 88 92 92 90 87 82 80 79 75 66 57 52 49 45 42 40
0 0 0 0 0 0 0 0 0 0 0 0 0 0 1 1 3 4 7 11 16 23 34 50 67 77 82 83 86 89 91 90 87 84 82 82 79 72 63 57 56 52 46 44
0 0 0 0 0 0 0 0 0 0 0 0 1 2 2 3 5 7 10 13 16 20 31 46 61 72 77 80 82 86 88 89 88 85 82 81 80 75 67 63 63 61 56 55
0 0 0 0 0 0 0 0 0 0 0 0 2 3 4 6 9 13 16 18 18 23 32 43 54 64 71 76 79 81 84 85 85 83 79 76 76 74 69 67 68 67 66 66
0 0 0 0 0 0 0 0 0 0 0 0 2 3 5 8 12 18 22 23 24 28 35 44 54 61 67 74 78 79 80 80 80 79 77 74 72 72 69 67 68 69 69 69
0 0 0 0 0 0 0 0 0 0 0 1 2 3 4 7 12 18 24 25 27 32 39 49 59 64 67 72 77 79 77 77 76 76 75 73 70 69 67 65 65 67 67 63
0 0 0 0 0 0 0 0 0 0 0 1 3 4 5 7 11 17 22 24 26 32 39 48 57 63 66 70 75 77 76 76 75 75 75 72 68 66 65 62 63 65 61 54
1 0 0 0 0 0 0 0 0 0 1 3 5 6 6 8 11 17 23 26 28 31 36 42 50 59 64 68 72 73 74 75 75 74 73 71 68 65 63 61 61 62 58 53
1 1 0 0 0 0 0 1 1 2 3 5 6 7 8 10 15 23 30 34 34 35 38 42 47 54 59 64 67 67 69 71 71 70 68 67 66 64 62 60 61 61 57 54
1 1 1 0 0 1 1 2 4 4 5 6 6 7 8 9 15 26 35 40 41 41 43 44 46 49 53 56 60 61 63 65 65 64 64 63 62 61 60 60 59 57 53 50
1 1 1 0 0 1 2 2 3 4 5 5 5 6 6 7 12 23 33 40 44 46 47 46 46 49 53 56 56 58 59 62 64 64 62 61 59 59 61 60 57 53 48 46
0 0 0 0 1 1 1 1 2 3 4 6 6 7 8 9 12 21 32 39 44 48 50 50 50 54 59 62 61 60 60 63 65 65 62 58 57 58 59 57 54 50 46 45
0 0 0 1 1 1 2 3 5 9 13 14 13 12 13 15 17 23 32 39 43 46 50 53 56 59 64 68 67 66 65 65 65 64 59 55 54 54 53 52 51 47 44 42
1 1 1 1 3 6 10 13 17 22 25 23 20 17 17 18 19 23 29 35 39 41 44 50 55 59 63 67 67 67 66 63 60 57 53 51 51 48 46 46 46 42 39 37
2 2 2 3 7 13 19 22 26 28 27 23 18 16 16 17 20 22 25 29 32 34 36 40 46 50 55 59 61 60 57 52 49 48 46 46 46 43 40 38 36 33 31 30
3 3 4 7 10 15 18 19 21 22 19 14 12 13 14 17 20 22 23 25 27 28 27 29 32 36 42 47 48 46 43 40 39 40 39 38 37 35 31 27 23 21 21 21
4 4 6 8 10 12 14 12 11 11 10 8 8 12 15 17 19 20 21 21 23 23 21 21 22 25 30 34 36 35 33 32 33 33 32 29 27 25 21 15 11 11 10 10
5 5 6 8 9 11 12 11 7 6 5 5 6 11 15 16 17 19 19 19 19 19 18 19 18 19 24 28 30 30 30 30 29 28 26 24 22 21 16 10 7 6 5 5

GEFSCGP_con_prob3kmehi_216.txt.gz
EHI
0 0 0 0 0 0 0 0 0 0 1 4 8 12 11 10 15 24 30 32 32 34 43 57 66 69 69 67 62 58 49 39 35 32 25 17 10 4 3 7 10 13 14 16
0 0 0 0 0 0 0 0 0 1 2 4 7 10 8 8 15 23 30 32 32 34 44 58 69 75 76 74 69 64 54 45 39 34 26 18 12 6 3 5 9 12 14 15
0 0 0 0 0 0 0 0 0 1 2 3 5 5 5 6 12 21 30 34 33 36 46 59 72 82 84 81 78 72 62 51 43 37 31 25 20 13 7 6 7 9 11 12
0 0 0 0 0 0 0 0 0 0 1 1 2 2 2 5 10 18 28 34 34 37 46 58 71 83 87 85 83 78 69 58 47 40 36 34 30 21 12 9 7 6 8 10
0 0 0 0 0 0 0 0 0 0 0 0 0 0 1 4 9 17 25 30 33 37 44 55 68 79 86 87 85 82 75 64 54 45 40 39 35 24 15 12 9 5 6 8
0 0 0 0 0 0 0 0 0 0 0 0 0 0 1 4 10 18 24 27 31 37 44 53 64 75 83 86 87 83 77 69 61 52 44 39 34 26 19 16 13 9 8 9
0 0 0 0 0 0 0 0 0 0 0 0 0 0 1 3 9 17 23 28 31 36 45 54 63 72 81 87 88 84 78 72 66 59 49 39 34 28 23 18 15 13 12 12
0 0 0 0 0 0 0 0 0 0 0 0 0 1 2 3 7 14 22 29 33 37 45 55 64 72 80 87 89 86 79 72 67 61 51 41 34 29 23 19 17 16 15 15
0 0 0 0 0 0 0 0 0 0 0 0 0 1 3 4 7 14 22 29 34 38 44 53 61 69 78 82 84 83 78 71 66 60 51 43 37 31 25 23 21 18 16 16
0 0 0 0 0 0 0 0 0 0 0 0 1 2 3 5 9 15 20 26 32 37 42 49 57 64 69 72 75 77 75 71 66 60 54 47 41 35 29 28 26 21 16 15
0 0 0 0 0 0 0 0 0 0 0 0 1 2 4 7 12 16 19 22 28 34 39 45 51 56 59 62 68 72 73 71 67 62 58 52 46 38 33 31 27 21 16 14
0 0 0 0 0 0 0 0 0 0 0 0 1 2 5 9 15 19 21 24 29 36 40 43 46 49 53 56 62 67 71 71 69 65 58 52 47 40 35 32 26 19 15 13
0 0 0 0 0 0 0 0 0 0 0 0 1 4 7 11 16 21 26 31 36 40 43 44 45 48 52 54 57 60 66 70 70 65 57 50 45 42 37 32 24 18 14 12
0 0 0 0 0 0 0 0 0 0 0 0 1 5 9 13 18 24 29 34 40 42 44 44 46 48 52 54 54 55 60 66 67 64 56 49 44 41 37 30 22 15 12 11
0 0 0 0 0 0 0 0 0 0 0 0 1 4 9 15 22 28 32 37 42 44 43 43 42 44 48 52 53 53 56 62 65 64 57 49 43 38 33 27 20 13 10 9
0 0 0 0 0 0 0 0 0 0 0 1 2 5 11 19 26 30 34 39 44 45 44 41 38 36 40 46 49 51 54 58 63 62 57 49 43 38 32 26 21 17 13 11
0 0 0 0 0 0 0 0 0 0 1 2 4 8 17 25 28 30 33 38 43 45 43 39 35 33 34 38 43 45 49 54 57 58 55 51 46 40 34 29 26 24 21 18
0 0 0 0 0 0 0 1 1 1 3 4 6 12 21 29 31 32 33 36 40 42 40 37 35 36 36 37 40 43 45 49 51 51 51 51 48 42 37 33 32 30 26 22
0 0 0 0 0 0 1 2 3 3 5 6 9 14 20 26 32 34 34 35 36 36 35 34 35 39 41 40 41 44 46 46 46 45 46 47 45 42 37 34 32 30 25 21
0 0 0 0 0 0 1 3 4 4 5 7 9 14 17 21 27 30 31 33 33 33 34 33 34 38 40 40 41 44 44 43 41 40 41 41 41 39 35 31 27 24 22 19
0 0 0 0 0 0 1 3 3 4 6 8 10 12 15 19 22 24 26 28 30 31 32 31 31 33 34 35 39 40 39 38 36 36 37 38 37 35 31 25 21 20 18 16
0 0 0 0 0 0 1 1 1 4 8 11 13 15 16 18 19 19 19 20 21 22 24 24 24 25 25 28 33 35 33 31 30 30 32 33 33 30 25 21 19 18 17 15
0 1 1 0 0 1 1 1 2 4 8 12 16 17 16 16 15 14 12 12 12 14 15 16 17 18 17 19 23 25 26 24 23 23 24 26 26 22 18 16 15 15 15 14
1 1 1 1 1 2 4 4 4 6 9 13 16 16 14 13 12 12 10 8 8 9 10 11 13 14 12 12 13 16 18 18 16 16 16 17 18 15 12 10 10 10 10 8
0 1 1 0 1 3 5 6 5 8 11 13 14 13 12 12 12 12 10 8 7 7 6 7 9 10 8 7 8 10 11 11 11 10 10 10 11 10 8 6 5 5 5 4
0 0 0 0 1 2 4 4 6 9 11 10 9 10 11 11 12 11 10 8 6 5 4 5 6 6 6 5 5 6 6 6 7 8 9 8 7 8 7 5 4 3 3 3

GEFSCGP_con_prob3kmehi_222.txt.gz
EHI
0 0 0 0 0 0 0 0 0 0 0 0 0 0 0 1 3 4 5 6 6 6 5 5 6 9 14 16 12 10 11 14 13 11 8 6 5 4 4 5 6 7 8 9
0 0 0 0 0 0 0 0 0 0 0 0 0 0 0 1 2 4 5 6 7 9 9 8 9 13 19 21 18 15 15 17 17 15 12 8 5 3 4 6 7 7 7 8
0 0 0 0 0 0 0 0 0 0 0 0 0 0 0 0 2 4 5 6 8 12 14 14 15 19 24 26 26 23 21 21 21 20 18 13 8 5 5 5 5 6 6 7
0 0 0 0 0 0 0 0 0 0 0 0 0 0 0 1 3 5 5 5 8 12 16 19 20 23 27 29 31 31 28 25 24 24 25 21 14 9 5 4 4 4 4 5
0 0 0 0 0 0 0 0 0 0 0 0 0 0 0 1 4 5 4 5 8 12 17 21 22 25 27 30 34 36 33 28 26 27 27 24 18 10 5 3 3 3 3 3
0 0 0 0 0 0 0 0 0 0 0 0 0 0 0 1 3 4 4 5 8 13 17 19 20 21 25 29 36 40 36 30 27 26 25 23 18 11 6 4 4 4 3 2
0 0 0 0 0 0 0 0 0 0 0 0 0 0 0 1 3 5 6 8 10 14 17 17 15 17 23 30 38 42 39 34 30 27 25 23 18 11 7 6 5 5 4 2
0 0 0 0 0 0 0 0 0 0 0 0 0 0 1 2 5 6 9 11 10 12 15 16 15 16 22 32 42 46 43 38 34 30 27 24 20 15 10 8 7 8 6 4
0 0 0 0 0 0 0 0 0 0 0 0 0 1 1 4 6 8 10 10 9 9 13 15 15 14 19 30 42 47 45 39 35 32 30 27 25 22 16 12 11 10 8 5
0 0 0 0 0 0 0 0 0 0 0 0 0 0 1 4 7 8 8 7 7 9 13 14 13 12 15 23 34 41 43 40 37 35 34 33 32 29 24 19 15 13 10 7
0 0 0 0 0 0 0 0 0 0 0 0 0 0 1 4 7 7 6 6 8 11 14 15 15 13 14 18 28 37 41 40 39 38 37 36 34 31 27 23 19 15 11 8
0 0 0 0 0 0 0 0 0 0 0 0 0 0 3 8 9 8 8 7 10 15 19 20 19 18 18 21 27 34 37 38 38 38 37 35 33 30 26 24 20 15 11 8
0 0 0 0 0 0 0 0 0 0 0 0 0 1 5 11 14 13 12 11 13 19 25 25 25 25 25 26 27 28 31 33 36 36 35 33 30 27 26 23 18 13 10 9
0 0 0 0 0 0 0 0 0 0 0 0 0 1 5 11 14 16 17 18 18 23 29 32 32 30 29 27 25 24 25 27 30 34 34 32 26 23 23 21 16 12 10 9
0 0 0 0 0 0 0 0 0 0 0 0 1 2 6 11 14 16 20 23 24 27 32 35 33 31 28 25 23 24 25 25 27 31 34 31 25 20 18 17 15 12 9 8
0 0 0 0 0 0 0 0 0 0 0 1 2 4 9 14 16 19 22 25 27 29 31 30 28 27 25 23 22 23 26 28 28 29 30 29 27 23 19 18 16 14 12 10
0 0 0 0 0 0 0 0 0 0 0 1 2 6 12 18 21 23 24 27 30 30 26 23 22 22 20 18 18 20 24 30 31 28 25 25 26 26 26 23 20 18 16 15
0 0 0 0 0 0 0 0 0 0 0 2 4 9 15 20 23 24 25 27 29 28 23 18 16 16 15 14 15 16 21 26 28 27 24 22 23 25 27 25 21 19 19 18
0 0 0 0 0 0 0 0 0 0 1 3 8 14 17 18 21 21 20 22 26 25 20 15 11 11 12 13 14 15 18 22 23 23 21 21 22 23 24 23 20 18 17 17
0 0 0 0 0 0 0 0 0 0 1 4 10 14 14 13 14 14 15 19 24 23 18 12 9 10 13 14 15 15 18 20 20 18 17 18 20 21 21 21 19 16 15 14
0 0 0 0 0 0 0 0 0 0 0 2 6 9 10 9 8 10 14 19 22 22 18 14 13 14 15 15 15 16 17 17 16 15 15 15 16 17 18 18 16 14 12 11
0 0 0 0 0 0 0 0 0 0 1 2 5 7 9 8 8 9 11 14 17 17 17 16 16 15 14 13 14 15 15 13 12 13 13 13 13 14 15 14 12 11 11 11
0 0 0 0 0 0 0 0 0 0 1 2 5 9 10 9 9 9 8 9 11 12 13 13 12 11 10 10 11 14 12 9 9 11 11 10 10 11 11 9 8 9 11 11
0 0 0 0 0 0 0 0 1 1 2 4 7 10 10 8 7 6 7 7 8 9 10 9 9 7 6 6 8 10 8 6 6 8 7 7 7 8 7 5 4 6 8 9
0 0 0 0 0 0 1 1 2 3 4 6 8 8 8 6 5 5 6 6 6 8 8 7 6 5 4 4 5 5 3 2 2 3 3 3 3 4 3 2 2 3 3 4
0 0 0 0 0 0 1 1 2 4 5 6 7 7 5 5 5 5 5 5 5 6 7 6 5 4 4 3 3 2 1 0 0 1 1 1 1 1 1 1 1 1 1 1

GEFSCGP_con_prob3kmehi_228.txt.gz
EHI
0 0 0 0 0 0 0 0 0 0 0 0 0 0 0 1 1 2 4 5 3 1 4 9 9 10 11 12 15 19 22 23 20 14 9 8 6 5 4 5 6 6 7 8
0 0 0 0 0 0 0 0 0 0 0 0 0 0 1 2 2 2 3 3 2 2 6 11 13 14 15 16 18 21 25 27 25 19 13 10 8 6 5 5 6 6 6 6
0 0 0 0 0 0 0 0 0 0 0 0 0 0 1 2 2 3 2 1 1 3 8 14 18 21 21 21 22 24 28 32 31 25 19 16 13 9 6 5 6 6 6 5
0 0 0 0 0 0 0 0 0 0 0 0 0 0 0 1 2 3 3 2 1 2 7 15 21 25 25 23 23 27 34 39 38 32 28 26 21 12 7 6 5 5 6 6
0 0 0 0 0 0 0 0 0 0 0 0 0 0 0 1 3 3 4 3 2 2 5 11 18 23 23 18 20 29 41 47 47 42 37 33 25 15 9 8 7 7 8 9
0 0 0 0 0 0 0 0 0 0 0 0 0 0 0 2 4 4 3 3 2 3 6 10 15 19 18 15 18 30 45 54 55 50 43 37 30 22 16 12 11 11 12 13
0 0 0 0 0 0 0 0 0 0 0 0 0 0 2 5 7 6 3 2 3 5 8 12 15 18 18 16 18 31 47 57 59 56 47 40 34 28 23 18 15 16 16 15
0 0 0 0 0 0 0 0 0 0 0 0 0 1 3 6 9 8 5 4 5 8 9 12 15 18 19 19 21 32 47 56 59 57 52 45 40 34 29 24 20 20 18 16
0 0 0 0 0 0 0 0 0 0 0 0 0 1 3 7 11 12 8 6 8 9 10 10 13 15 18 21 24 33 43 51 55 55 53 49 46 41 36 31 27 23 20 18
0 0 0 0 0 0 0 0 0 0 0 0 0 0 3 8 12 13 11 10 12 13 12 13 14 16 18 22 26 32 38 44 49 52 50 48 48 47 44 39 33 28 24 22
0 0 0 0 0 0 0 0 0 0 0 0 0 0 3 8 12 14 14 16 19 20 19 19 20 21 22 25 29 32 35 40 46 49 48 46 46 46 44 42 38 33 29 27
0 0 0 0 0 0 0 0 0 0 0 0 0 1 4 9 14 15 16 20 24 25 26 26 27 28 31 33 36 37 37 40 45 49 49 48 46 43 42 42 41 37 33 30
0 0 0 0 0 0 0 0 0 0 0 0 0 1 5 11 14 14 14 18 23 26 29 31 32 35 39 42 43 43 41 42 46 49 49 49 46 43 42 43 43 41 37 34
0 0 0 0 0 0 0 0 0 0 0 0 0 1 6 11 14 13 12 16 22 27 31 35 36 40 45 48 49 47 43 41 45 49 50 47 44 42 43 44 45 44 40 36
0 0 0 0 0 0 0 0 0 0 0 0 1 3 7 13 16 15 14 17 24 29 32 36 40 44 49 50 49 48 46 43 46 50 50 46 43 43 44 44 43 42 39 35
0 0 0 0 0 0 0 0 0 0 0 1 2 5 10 15 18 17 16 18 24 29 33 36 40 44 46 46 45 45 46 46 47 49 47 43 42 44 44 42 41 39 36 34
0 0 0 0 0 0 0 0 0 1 1 2 4 8 13 17 20 19 17 20 24 28 31 34 36 39 39 38 39 39 40 43 45 46 43 39 39 41 40 39 38 37 36 35
0 0 0 0 0 0 0 0 1 3 4 4 7 11 15 18 21 21 20 22 25 30 32 33 33 34 33 33 34 35 36 38 41 42 40 38 36 35 34 34 35 36 36 35
0 0 0 0 0 0 0 0 1 3 3 4 8 13 15 17 20 21 23 26 30 35 35 33 31 29 28 31 34 35 35 37 37 37 36 35 31 27 28 31 33 34 33 32
0 0 0 0 0 1 1 0 0 1 2 3 9 14 15 15 18 23 26 29 34 36 35 32 30 28 27 30 33 32 32 34 34 33 32 30 28 26 28 31 31 30 30 27
0 0 0 0 0 1 1 0 0 2 3 6 11 16 17 19 24 30 31 31 34 36 34 31 31 31 30 29 29 29 30 32 33 31 30 30 30 30 32 33 30 27 26 24
0 0 0 0 1 2 2 3 4 6 9 10 14 18 21 27 32 35 34 32 33 34 33 32 34 35 32 28 26 28 30 31 31 31 31 33 33 30 28 28 27 25 23 22
0 0 0 0 1 2 4 7 9 11 13 13 16 20 24 28 32 34 33 32 32 32 32 33 34 34 31 27 26 27 28 29 28 28 30 30 27 23 20 20 21 21 20 19
2 2 2 1 2 2 5 9 11 13 14 14 17 21 24 26 27 29 29 29 28 28 29 30 31 30 26 23 23 24 23 23 22 21 21 19 17 15 14 13 14 13 12 13
3 4 4 4 3 3 7 11 12 13 15 16 18 20 23 25 24 24 24 23 22 22 23 26 27 25 20 18 18 18 17 16 15 14 11 9 8 9 8 7 6 5 5 5
2 4 6 6 4 5 9 14 14 14 16 18 18 19 22 23 22 22 22 19 18 18 20 23 24 22 18 14 14 14 12 12 11 10 8 6 5 6 4 2 1 1 1 1

GEFSCGP_con_prob3kmehi_234.txt.gz
EHI
0 0 0 0 0 0 0 0 0 0 0 1 3 4 5 6 6 7 13 22 34 42 44 45 45 46 51 59 58 50 45 40 29 20 19 20 20 20 22 24 25 25 23 23
0 0 0 0 0 0 0 0 0 0 0 1 3 5 8 9 8 10 15 21 30 41 50 52 51 50 54 62 63 57 52 46 35 25 23 24 24 25 25 26 27 24 22 22
0 0 0 0 0 0 0 0 0 0 0 1 2 5 11 13 11 12 15 18 23 37 53 61 60 56 58 64 67 65 64 57 46 36 32 34 36 35 33 33 32 27 23 22
0 0 0 0 0 0 0 0 0 0 0 0 1 4 11 14 13 13 15 14 16 29 50 64 68 66 64 65 67 71 73 68 57 49 44 45 47 44 40 39 39 35 30 27
0 0 0 0 0 0 0 0 0 0 0 0 0 3 8 13 14 14 15 14 13 24 44 61 71 72 68 64 66 73 77 73 65 59 54 52 51 47 42 43 44 42 38 35
0 0 0 0 0 0 0 0 0 0 0 0 0 2 7 13 15 15 16 16 16 21 36 55 69 74 69 65 67 75 80 77 70 63 58 55 52 48 44 45 47 45 42 41
0 0 0 0 0 0 0 0 0 0 0 0 0 3 9 14 16 16 16 17 19 22 33 51 66 73 72 69 72 78 83 80 72 65 60 57 53 49 46 46 47 46 44 45
0 0 0 0 0 0 0 0 0 0 0 0 1 5 11 14 15 15 14 16 20 25 33 46 59 66 67 70 75 80 83 81 74 68 64 60 57 52 49 47 46 45 45 44
0 0 0 0 0 0 0 0 0 0 0 0 1 5 11 14 14 13 13 15 20 24 29 38 48 54 58 64 72 78 80 79 75 71 67 64 61 57 53 50 46 44 45 45
0 0 0 0 0 0 0 0 0 0 0 0 1 4 10 13 14 14 15 15 17 18 21 29 38 47 54 61 68 74 76 76 75 73 69 66 65 62 56 52 48 44 44 46
0 0 0 0 0 0 0 0 0 0 0 0 0 4 9 13 15 17 18 16 16 16 19 25 37 49 58 63 67 70 73 74 74 73 70 67 66 64 58 53 50 46 46 47
0 0 0 0 0 0 0 0 0 0 0 0 0 3 8 12 17 20 22 21 21 22 25 32 43 54 62 66 69 70 71 71 71 72 70 67 67 66 62 58 55 51 49 48
0 0 0 0 0 0 0 0 0 0 0 0 1 4 8 14 19 24 27 29 30 33 37 44 54 62 66 69 71 72 70 67 66 69 69 67 67 67 65 64 61 57 53 50
0 0 0 0 0 0 0 0 0 0 0 1 2 6 11 18 23 27 31 34 37 42 47 54 63 68 70 71 72 72 70 66 63 64 66 66 64 63 64 65 64 62 58 54
0 0 0 0 0 0 0 0 0 0 0 2 5 10 17 23 27 29 31 34 40 46 50 56 62 66 69 71 71 69 68 65 61 61 64 64 62 60 61 62 63 63 60 56
0 0 0 0 0 0 0 0 0 0 1 3 8 14 21 27 29 29 29 31 36 42 49 55 57 58 62 67 68 67 65 62 61 62 63 63 61 59 58 58 58 59 58 57
0 0 0 0 0 0 0 0 1 1 3 5 9 16 23 26 27 28 28 28 31 39 48 53 52 51 55 60 62 63 61 59 61 63 62 59 58 57 54 52 52 54 55 56
1 1 0 0 0 0 0 0 1 3 4 5 10 17 22 22 24 27 29 31 35 41 48 51 50 50 52 54 55 57 57 58 60 61 58 56 56 56 53 49 50 52 52 51
2 1 0 0 0 0 0 0 1 3 5 7 13 19 20 19 22 27 34 39 44 48 50 48 47 49 51 51 53 53 54 57 58 57 55 54 54 55 54 52 51 52 50 47
2 1 0 0 0 0 0 0 0 2 5 10 17 22 22 22 26 35 43 47 48 49 48 45 44 45 47 51 53 52 52 53 53 52 51 51 50 50 52 53 52 51 48 44
1 0 0 0 0 1 2 2 3 9 14 17 21 25 29 31 35 43 49 50 47 44 41 41 42 42 44 48 49 49 48 48 47 47 47 47 46 42 43 45 46 44 41 39
1 1 1 2 3 6 8 10 15 23 27 25 22 25 32 39 41 44 50 49 44 38 36 38 41 41 41 43 42 42 42 42 42 42 41 41 39 34 32 35 35 34 31 29
1 1 4 6 9 12 17 22 26 29 29 25 22 24 33 39 39 44 49 48 42 36 34 36 39 39 39 38 35 35 37 37 36 35 33 32 30 28 27 29 27 26 24 22
0 2 7 12 13 15 20 23 24 22 20 20 22 26 31 34 38 44 47 45 39 36 34 34 36 36 36 33 29 28 29 29 28 28 27 26 24 23 23 24 22 20 18 17
2 4 10 15 17 18 18 18 17 15 15 18 23 27 29 31 37 42 42 39 37 35 34 32 31 30 30 29 25 24 24 24 23 23 22 21 19 17 16 15 14 12 11 9
4 7 11 16 20 20 18 16 15 15 16 19 23 27 29 30 35 39 38 37 36 36 34 31 27 25 26 26 24 22 22 23 22 21 20 18 15 13 11 9 8 7 5 3

GEFSCGP_con_prob3kmehi_240.txt.gz
EHI
0 0 0 0 0 0 0 1 2 2 1 0 0 1 4 6 8 8 6 4 3 5 10 20 30 37 37 32 30 29 22 14 13 14 12 8 4 3 5 7 9 10 10 10
0 0 0 0 0 0 0 1 2 3 1 1 1 3 5 8 10 10 8 5 4 6 13 23 33 42 45 42 38 35 29 21 16 15 12 8 4 4 5 7 9 9 9 9
0 0 0 0 0 0 0 1 3 3 2 2 3 4 6 10 12 13 11 8 7 8 13 23 36 47 54 53 47 43 39 31 21 17 15 11 8 6 7 8 9 9 9 9
0 0 0 0 0 0 0 1 2 2 2 2 3 3 5 8 12 13 13 14 13 12 16 25 37 48 56 57 54 50 46 39 29 24 22 18 13 9 8 9 10 11 11 10
0 0 0 0 0 0 0 1 1 1 1 2 2 2 3 6 9 12 14 17 19 19 23 29 38 46 53 59 60 56 52 46 39 34 31 26 19 13 11 11 12 13 12 11
0 0 0 0 0 0 0 0 0 0 0 1 1 2 2 4 7 11 13 16 20 24 29 33 39 45 51 59 64 62 57 51 46 43 39 33 27 21 18 17 16 15 13 11
0 0 0 0 0 0 0 0 0 0 0 0 0 2 4 6 9 13 15 16 20 26 32 36 41 47 53 61 66 65 62 57 52 49 45 39 33 29 26 23 21 19 16 14
0 0 0 0 0 0 0 0 0 0 0 0 1 4 6 9 13 16 17 19 22 27 32 38 43 49 55 61 65 67 66 62 57 53 49 44 37 31 28 28 27 25 21 18
0 0 0 0 0 0 0 0 0 0 0 0 1 4 7 11 14 16 17 20 22 24 29 37 43 48 53 58 61 64 66 64 60 55 51 44 38 33 30 29 29 27 24 21
0 0 0 0 0 0 0 0 0 0 0 0 1 3 6 10 13 15 16 19 20 20 24 34 42 46 51 54 56 58 61 62 59 56 50 42 37 34 31 28 27 26 24 22
0 0 0 0 0 0 0 0 0 0 0 0 1 3 5 9 14 17 18 18 19 20 23 33 42 48 52 54 56 57 57 59 59 56 50 43 38 35 32 29 26 25 23 21
0 0 0 0 0 0 0 0 0 0 0 0 1 3 6 10 16 21 22 23 25 26 29 36 45 52 56 59 61 60 59 58 59 58 53 46 40 38 36 31 28 26 23 20
0 0 0 0 0 0 0 0 0 0 0 0 0 3 8 15 22 26 30 32 35 36 37 41 46 52 58 63 65 63 62 60 60 60 57 50 44 41 38 34 30 27 23 19
0 0 0 0 0 0 0 0 0 0 0 0 1 3 9 17 25 32 38 39 40 41 42 43 44 47 53 58 59 58 57 56 55 56 57 52 46 42 39 36 32 29 24 20
0 0 0 0 0 0 0 0 0 0 0 0 2 5 10 17 25 33 38 39 38 38 40 41 40 40 43 47 48 47 46 44 45 48 51 49 45 41 39 38 36 32 26 21
0 0 0 0 0 0 0 0 0 1 2 2 4 7 11 18 26 32 36 36 35 34 35 36 36 36 36 39 41 41 39 37 39 43 44 44 42 40 40 40 38 33 25 20
0 0 0 0 0 0 0 0 2 4 5 6 8 12 16 22 28 33 37 38 35 34 34 35 36 35 34 35 37 40 40 39 41 43 44 44 43 41 40 40 38 31 24 20
0 0 0 0 0 0 0 0 2 5 8 12 16 21 25 29 32 35 37 37 34 33 35 38 38 36 34 34 36 37 38 40 40 42 43 44 43 41 38 38 37 32 26 22
0 0 0 0 0 0 0 1 2 5 11 16 21 26 29 31 34 34 32 33 32 32 36 39 38 38 37 36 34 32 32 33 34 35 37 38 38 36 34 34 34 32 28 24
0 0 0 0 0 0 1 2 2 5 12 17 19 21 23 27 30 30 30 32 34 36 38 39 37 37 38 35 30 27 26 26 26 26 28 29 30 31 31 30 29 29 27 23
0 0 0 0 0 0 2 3 2 4 10 15 16 15 17 21 25 30 33 36 37 38 38 37 36 35 33 29 26 24 24 25 24 21 21 23 24 26 27 26 25 24 21 18
0 0 0 0 0 1 3 5 4 4 9 13 13 14 15 18 25 33 38 38 37 35 34 33 32 30 27 24 24 24 23 22 21 19 18 18 19 20 23 23 22 19 17 16
0 0 1 1 1 2 4 6 6 8 11 13 13 15 17 20 28 35 38 37 34 31 28 28 27 25 21 20 21 19 17 16 16 15 15 14 14 16 18 18 18 16 14 13
0 1 2 4 5 6 7 8 9 12 14 14 15 17 19 22 29 35 35 33 30 28 26 25 24 21 17 14 13 11 10 10 11 11 10 10 10 11 12 13 12 12 11 10
1 2 3 5 7 8 8 8 10 14 16 15 16 18 21 24 29 32 32 29 27 25 24 24 22 18 13 10 8 6 6 7 8 8 7 6 5 6 7 7 7 6 6 6
1 2 4 4 4 5 6 7 10 13 15 15 17 20 23 26 29 30 29 27 25 24 22 22 21 15 10 8 7 6 6 7 7 7 6 4 2 3 4 4 4 3 3 3

GEFSCGP_con_prob3kmehi_246.txt.gz
EHI
0 0 0 0 0 0 0 1 0 1 2 3 3 4 5 5 3 1 0 0 1 2 2 1 2 5 6 5 4 4 5 4 3 3 3 2 3 2 2 1 1 3 5 6
0 0 0 0 0 0 1 1 1 1 1 2 3 4 5 5 3 1 0 0 1 2 3 2 3 5 7 7 5 4 4 3 2 2 2 2 2 1 1 1 2 5 6 6
0 0 0 0 0 0 1 1 1 0 0 1 1 2 3 3 2 0 0 1 2 3 3 4 4 5 7 7 6 4 3 2 1 2 3 4 4 2 1 1 3 4 4 4
0 0 0 0 0 0 0 0 0 0 0 0 0 1 1 1 1 1 1 2 3 3 4 5 6 6 6 6 4 2 2 2 2 4 6 6 6 4 2 1 1 3 2 2
0 0 0 0 0 0 0 0 0 0 0 0 0 0 0 0 1 2 3 3 3 3 4 4 6 7 7 4 2 1 2 2 3 5 8 8 7 6 4 2 2 3 4 4
0 0 0 0 0 0 0 0 0 0 0 0 0 0 0 0 1 2 3 4 4 4 5 4 6 8 9 8 6 5 5 4 4 7 9 10 10 10 9 7 7 7 7 8
0 0 0 0 0 0 0 0 0 0 0 0 0 0 0 0 0 1 2 4 5 5 6 6 7 10 11 13 14 12 9 7 7 9 11 12 14 14 14 14 12 11 10 11
0 0 0 0 0 0 0 0 0 0 0 0 0 0 0 0 1 1 3 5 6 7 8 7 8 10 12 17 22 22 17 13 12 13 15 16 18 18 18 17 15 14 13 13
0 0 0 0 0 0 0 0 0 0 0 0 0 0 0 1 2 4 5 5 6 9 11 9 8 8 12 20 28 31 28 23 19 17 16 16 18 19 18 17 16 15 15 15
0 0 0 0 0 0 0 0 0 0 0 0 0 0 0 1 2 4 5 5 6 9 11 10 8 8 13 21 30 34 32 28 24 20 16 14 15 16 15 15 15 15 16 16
0 0 0 0 0 0 0 0 0 0 0 0 0 0 0 1 1 2 4 5 6 7 9 10 9 11 16 22 27 32 32 29 26 23 19 16 15 15 15 15 15 15 16 17
0 0 0 0 0 0 0 0 0 0 0 0 0 0 0 1 2 4 5 6 6 7 9 12 13 16 19 24 28 32 33 30 28 25 21 20 19 18 17 17 17 16 16 16
0 0 0 0 0 0 0 0 0 0 0 0 0 0 0 2 6 8 8 7 7 9 12 16 19 22 23 26 30 32 30 28 28 28 25 25 24 20 17 17 18 16 15 14
0 0 0 0 0 0 1 1 0 0 0 0 0 0 1 4 10 13 13 12 12 15 18 21 24 27 27 28 30 30 26 25 27 28 28 28 27 23 19 18 18 16 14 12
0 0 0 0 0 1 2 3 2 1 0 0 0 0 2 6 12 16 18 17 18 21 23 25 28 31 29 26 26 25 25 25 26 27 28 28 28 27 24 21 20 17 13 10
0 0 0 0 0 1 3 4 4 2 1 1 1 1 5 10 14 17 20 22 24 26 27 27 29 31 28 22 20 21 22 24 26 27 28 27 26 26 26 23 21 18 13 10
0 0 0 0 0 0 1 3 4 4 3 2 2 3 8 14 17 17 20 24 28 29 29 28 27 27 24 20 18 18 19 22 25 25 24 22 21 21 23 21 18 16 14 12
0 0 0 0 0 0 0 1 3 4 4 3 5 7 12 17 18 18 20 24 25 26 27 28 26 24 22 20 18 16 16 19 22 21 18 16 15 16 18 17 15 14 14 14
0 0 0 0 0 0 0 0 2 4 4 4 8 12 16 18 20 20 20 19 19 19 22 25 26 24 21 20 19 17 15 17 19 18 15 14 14 14 14 15 15 15 15 15
0 0 0 0 0 0 0 0 1 2 2 4 10 14 15 18 19 18 17 17 17 18 20 22 23 21 19 19 19 16 14 15 16 14 12 13 13 13 13 14 15 16 16 16
0 0 0 0 0 0 0 0 0 1 1 3 8 11 11 12 13 14 15 17 18 19 19 19 19 17 15 14 14 12 10 10 10 8 8 9 11 12 13 14 15 16 16 15
0 0 0 0 0 0 0 0 0 0 0 2 4 7 8 9 10 12 16 18 18 18 17 15 14 12 9 8 8 6 5 6 5 5 5 6 8 11 13 15 16 15 14 13
0 0 0 0 0 0 0 0 0 0 1 2 3 4 7 10 12 14 17 18 18 17 14 11 10 9 6 6 6 5 4 4 4 4 4 4 5 7 9 10 12 12 12 11
0 0 0 0 0 0 0 0 0 1 2 4 4 5 8 12 14 16 18 19 19 16 12 9 8 8 7 6 6 5 4 3 3 4 4 4 3 2 3 4 6 9 9 10
0 0 0 0 0 0 0 0 1 2 4 7 8 8 11 13 15 18 19 20 19 15 10 9 9 9 8 6 5 5 4 3 3 3 3 2 1 0 0 1 2 4 6 7
0 0 0 0 0 0 0 1 2 3 6 9 10 12 13 14 16 18 22 22 18 12 9 8 9 9 8 5 3 4 4 3 3 3 3 1 0 0 0 0 1 2 3 3

GEFSCGP_con_prob3kmehi_252.txt.gz
EHI
0 0 0 0 0 0 0 0 0 0 0 1 2 3 3 2 1 0 0 1 2 3 2 1 0 0 1 4 9 12 12 10 8 5 3 3 3 2 2 2 3 4 4 4
0 0 0 0 0 0 0 0 0 0 0 0 1 2 2 2 2 1 0 0 2 3 2 1 0 1 3 7 11 15 15 13 10 7 5 4 3 2 2 2 3 4 4 4
0 0 0 0 0 0 0 0 0 0 0 0 0 1 1 1 1 1 0 1 2 3 2 1 1 2 5 8 11 14 18 18 17 12 7 4 3 3 1 1 3 4 4 5
0 0 0 0 0 0 0 0 0 0 0 0 0 0 1 1 0 1 2 3 4 4 3 2 2 3 5 7 8 14 20 23 23 19 13 7 4 2 1 1 3 5 6 6
0 0 0 0 0 0 0 0 0 0 0 0 0 0 0 0 0 1 4 6 7 6 4 3 3 4 5 5 8 13 21 26 27 25 21 16 10 5 4 4 7 9 10 10
0 0 0 0 0 0 0 0 0 0 0 0 0 0 0 0 1 3 6 9 11 10 7 6 6 6 7 8 9 13 21 28 29 27 25 21 16 12 10 11 12 12 12 13
0 0 0 0 0 0 0 0 0 0 0 0 0 0 1 1 4 7 8 10 12 12 11 11 11 10 10 10 11 14 22 29 29 26 24 22 19 15 13 14 14 13 12 13
0 0 0 0 0 0 0 0 0 0 0 0 0 0 2 3 6 10 12 11 12 12 12 14 14 13 11 11 12 17 26 31 30 27 24 22 20 15 12 14 15 14 13 13
0 0 0 0 0 0 0 0 0 0 0 0 0 0 2 3 7 12 14 13 11 11 11 13 15 14 11 11 14 19 27 31 31 28 25 22 19 16 14 16 17 15 14 13
0 0 0 0 0 0 0 0 0 0 0 0 0 0 2 4 8 12 15 14 11 11 13 14 16 15 13 12 14 19 26 31 32 31 28 23 20 18 17 17 18 16 14 13
0 0 0 0 0 0 0 0 0 0 0 0 0 1 2 6 9 13 15 14 12 13 16 17 17 18 18 16 16 20 26 30 32 32 30 25 22 20 19 20 20 18 15 13
0 0 0 0 0 0 0 0 0 0 0 0 0 1 4 8 12 15 16 16 15 17 21 22 22 23 25 23 22 25 28 30 30 31 30 28 27 24 21 21 21 19 15 12
0 0 0 0 0 0 0 0 0 0 0 0 0 1 5 9 14 18 20 20 21 24 30 33 33 33 31 29 29 30 30 30 31 32 32 31 30 27 22 20 20 19 16 14
0 0 0 0 0 0 0 0 0 0 0 0 0 2 5 10 15 21 23 23 25 31 40 45 46 43 38 36 37 35 32 31 34 36 35 34 31 27 23 21 21 20 18 17
0 0 0 0 0 0 0 0 0 0 0 0 0 3 7 12 18 24 25 24 28 36 44 49 50 48 44 44 45 41 35 35 38 40 39 36 33 28 25 23 23 22 22 22
0 0 1 0 0 0 0 1 1 1 1 1 1 5 10 15 21 26 26 27 32 40 45 48 48 46 45 47 48 45 42 42 45 45 42 37 33 30 26 24 26 28 29 30
0 0 0 0 0 0 0 1 2 3 3 3 4 8 13 18 25 28 29 31 35 40 44 46 43 41 43 46 47 44 45 48 49 48 44 37 32 29 25 23 27 32 34 35
0 0 0 0 0 0 1 2 3 3 4 6 7 10 14 20 26 29 30 32 35 38 42 44 40 38 40 45 45 43 44 47 48 49 45 38 32 30 25 23 26 30 33 34
0 0 0 0 0 0 1 2 2 3 5 7 9 12 17 21 24 27 29 31 34 37 39 40 39 38 40 42 44 43 43 46 46 45 43 38 34 30 26 24 24 27 28 28
0 0 0 0 0 0 1 1 1 2 5 7 9 12 17 18 20 24 29 31 33 35 37 38 40 41 40 39 40 42 43 43 41 38 36 35 33 28 25 23 23 24 23 22
0 0 0 0 0 0 1 2 3 4 6 6 8 11 12 13 17 23 28 29 32 35 37 38 41 41 39 38 37 37 38 37 34 28 26 27 27 24 23 23 22 21 21 19
0 0 0 0 0 1 3 4 6 9 9 8 8 9 9 11 18 24 26 27 29 33 35 36 38 38 37 36 34 32 30 30 26 22 20 21 21 21 21 22 21 21 20 18
1 1 2 1 1 2 6 8 10 13 14 14 12 10 9 12 18 22 24 25 28 31 31 31 32 33 32 32 31 27 24 22 21 19 18 18 19 19 19 19 19 20 19 17
3 4 5 4 3 5 9 12 13 15 16 17 15 12 11 13 16 18 20 24 27 29 28 27 28 28 28 27 27 24 19 15 15 16 16 16 16 16 16 15 15 15 15 13
5 6 7 7 7 8 11 12 12 13 14 15 15 13 11 13 15 16 18 22 25 25 23 22 23 22 20 20 21 19 16 13 12 13 14 14 14 14 13 12 10 10 9 7
5 7 7 8 10 11 12 11 10 11 12 13 14 12 11 13 16 17 18 20 23 21 18 17 17 16 14 14 16 16 15 13 11 11 12 13 13 13 12 9 7 6 4 3